Hartford, CT

6:16 AM EDT on August 24, 2016 (GMT -0400)
Bradley International

Weather History for KBDL - January, 2012

Change the Weather History Date:

Wednesday, January 18, 2012

  Actual Average Record
Temperature  
Mean Temperature 33 °F 26 °F  
Max Temperature 48 °F 34 °F 63 °F (1973)
Min Temperature 18 °F 17 °F -17 °F (1957)
Degree Days  
Heating Degree Days 32 39  
Month to date heating degree days 597 699  
Since 1 July heating degree days 2404 2943  
Cooling Degree Days 0 0  
Month to date cooling degree days 0 0  
Year to date cooling degree days 0 0  
Moisture  
Dew Point 17 °F    
Average Humidity 66    
Maximum Humidity 96    
Minimum Humidity 35    
Precipitation  
Precipitation 0.00 in 0.11 in 1.32 in (2015)
Month to date precipitation 1.35 1.86  
Year to date precipitation 1.35 1.86  
Snow  
Snow 0.00 in 0.30 in 4.40 in (2009)
Month to date snowfall 2.3 7.0  
Since 1 July snowfall 14.6 16.4  
Snow Depth -    
Sea Level Pressure  
Sea Level Pressure 29.85 in    
Wind  
Wind Speed 15 mph (WNW)    
Max Wind Speed 31 mph    
Max Gust Speed 43 mph    
Visibility 10 miles    
Events      
T = Trace of Precipitation, MM = Missing Value Source: NWS Daily Summary

Daily Weather History Graph

Daily Weather History Graph

Search for Another Location

Airport or City:

Trip Planner

Search our weather history database for the weather conditions in past years. The results will help you decide how hot, cold, wet, or windy it might be!

Date:

Astronomy

Jan. 18, 2012 Rise Set
Actual Time 7:14 AM EST 4:47 PM EST
Civil Twilight 6:44 AM EST 5:18 PM EST
Nautical Twilight 6:09 AM EST 5:52 PM EST
Astronomical Twilight 5:36 AM EST 6:25 PM EST
Moon 2:41 AM EST (1/18) 12:23 PM EST (1/18)
Length of Visible Light 10h 33m
Length of Day
9h 32m
Waning Crescent, 25% of the Moon is Illuminated
Jan 18
Waning Crescent
Jan 23
New
Jan 30
First Quarter
Feb 7
Full
Feb 14
Last Quarter

Hourly Weather History & Observations

Time (EST) Temp. Windchill Dew Point Humidity Pressure Visibility Wind Dir Wind Speed Gust Speed Precip Events Conditions
12:31 AM 42.8 °F 37.0 °F 41.0 °F 93% 29.48 in 6.0 mi South 10.4 mph - N/A   Partly Cloudy
12:51 AM 43.0 °F 37.2 °F 41.0 °F 93% 29.49 in 6.0 mi South 10.4 mph - N/A   Mostly Cloudy
1:51 AM 45.0 °F 38.5 °F 42.1 °F 90% 29.49 in 9.0 mi South 13.8 mph - N/A   Mostly Cloudy
2:51 AM 46.0 °F 40.6 °F 42.1 °F 86% 29.50 in 10.0 mi South 11.5 mph - N/A   Partly Cloudy
3:43 AM 46.4 °F 40.7 °F 35.6 °F 66% 29.56 in 10.0 mi NW 12.7 mph 21.9 mph N/A   Mostly Cloudy
3:51 AM 46.0 °F 40.6 °F 35.1 °F 66% 29.57 in 10.0 mi WNW 11.5 mph - N/A   Mostly Cloudy
4:51 AM 43.0 °F 35.7 °F 26.1 °F 51% 29.63 in 10.0 mi NW 15.0 mph 32.2 mph N/A   Mostly Cloudy
5:51 AM 37.9 °F 26.6 °F 18.0 °F 45% 29.69 in 10.0 mi WNW 25.3 mph 38.0 mph N/A   Partly Cloudy
6:51 AM 35.1 °F 24.5 °F 17.1 °F 48% 29.73 in 10.0 mi WNW 18.4 mph 27.6 mph N/A   Partly Cloudy
7:51 AM 35.1 °F 25.9 °F 19.0 °F 52% 29.76 in 10.0 mi NW 13.8 mph - N/A   Partly Cloudy
8:51 AM 35.1 °F 25.2 °F 16.0 °F 46% 29.81 in 10.0 mi WNW 16.1 mph 24.2 mph N/A   Scattered Clouds
9:51 AM 35.1 °F 25.5 °F 17.1 °F 48% 29.84 in 10.0 mi WNW 15.0 mph 28.8 mph N/A   Mostly Cloudy
10:51 AM 36.0 °F 24.4 °F 15.1 °F 43% 29.87 in 10.0 mi WNW 23.0 mph 32.2 mph N/A   Mostly Cloudy
11:51 AM 35.1 °F 22.2 °F 12.0 °F 39% 29.88 in 10.0 mi WNW 27.6 mph 32.2 mph N/A   Scattered Clouds
12:51 PM 36.0 °F 26.0 °F 12.0 °F 37% 29.90 in 10.0 mi WNW 17.3 mph 29.9 mph N/A   Scattered Clouds
1:51 PM 34.0 °F 22.1 °F 9.0 °F 35% 29.93 in 10.0 mi NW 21.9 mph 32.2 mph N/A   Partly Cloudy
2:51 PM 30.9 °F 17.5 °F 6.1 °F 35% 29.96 in 10.0 mi NW 24.2 mph 36.8 mph N/A   Partly Cloudy
3:51 PM 28.9 °F 16.1 °F 5.0 °F 36% 30.00 in 10.0 mi WNW 19.6 mph 27.6 mph N/A   Partly Cloudy
4:51 PM 26.1 °F 11.6 °F 5.0 °F 41% 30.04 in 10.0 mi NW 21.9 mph 32.2 mph N/A   Scattered Clouds
5:51 PM 24.1 °F 12.0 °F 5.0 °F 44% 30.09 in 10.0 mi NW 13.8 mph 21.9 mph N/A   Partly Cloudy
6:51 PM 23.0 °F 11.1 °F 5.0 °F 46% 30.09 in 10.0 mi NW 12.7 mph - N/A   Clear
7:51 PM 21.9 °F 11.7 °F 5.0 °F 48% 30.12 in 10.0 mi NW 9.2 mph - N/A   Clear
8:51 PM 19.9 °F 11.1 °F 5.0 °F 52% 30.14 in 10.0 mi NNW 6.9 mph - N/A   Clear
9:51 PM 19.9 °F 13.4 °F 5.0 °F 52% 30.16 in 10.0 mi NNW 4.6 mph - N/A   Partly Cloudy
10:51 PM 19.0 °F 12.3 °F 5.0 °F 54% 30.15 in 10.0 mi North 4.6 mph - N/A   Partly Cloudy
11:51 PM 18.0 °F 9.8 °F 5.0 °F 57% 30.17 in 10.0 mi NNW 5.8 mph - N/A   Partly Cloudy